sat.trackr.live / text

‹ back to catalog

AEROCUBE 8C

NORAD 41853 · 2016-067F

PAYLOAD ACTIVE UNKNOWN

§ Identity

Operator
Country
US
Launch date
2016-11-11
Launch site
AFWTR
Launch vehicle
Mass (kg)
RCS (m²)
0.05

Purposes: tech_demo

External: N2YO · Heavens-Above · Gunter

§ Orbital elements

Epoch: 2026-09-09T14:48:21.773952Z

Period
94.38 min
Inclination
98.0416°
Eccentricity
0.0006403
Mean motion
15.25691084 rev/d
Perigee alt
484.3 km
Apogee alt
493.1 km
Semi-major
6,866.8 km
B*
2.4608e-4
RAAN
126.3403°
Arg perigee
118.9901°
Mean anomaly
241.1978°
Rev number
53,893

§ Raw data

AEROCUBE 8C1 41853U 16067F   26252.61691868  .00006190  00000+0  24608-3 0  99912 41853  98.0416 126.3403 0006403 118.9901 241.1978 15.25691084538933

JSON: /api/v1/satellites/41853 · /tle

For live sub-satellite position, see the globe view (requires WebGL).

§ Visibility from observer

Set your observer location to see the next 7 days of passes ≥ 10°. The values pass through the URL so the page stays shareable.

No JS? Fill the form by hand. The geolocation button needs JavaScript.